Location: Unspecified
(38.9820°N, 0.0000°E)
Time: 13:30:40
(UTC+00:00)

Tiangong 2 - Pass Details

Date: 29 May 2019
Orbit: 376 x 388 km, 42.8° (Epoch: 25 June)

Event Time Altitude Azimuth Distance (km) Brightness Sun altitude
Rises 19:58:03 0° 290° (WNW) 2,240 6.7 -7.5°
Reaches altitude 10° 20:00:08 10° 294° (WNW) 1,386 5.4 -7.8°
Maximum altitude 20:03:13 60° 15° (NNE) 435 1.4 -8.3°
Drops below altitude 10° 20:06:18 10° 97° (E) 1,379 3.3 -8.8°
Enters shadow 20:06:22 10° 97° (E) 1,409 3.4 -8.8°
